QPF
0.00 0.01 0.02 0.02 0.03 0.03 0.02 0.02 0.02 0.01 0.01 0.01 0.02 0.03 0.03 0.02 0.01 0.01 0.01 0.01 0.01 0.02 0.03 0.04 0.04 0.04 0.04 0.04 0.05 0.07 0.07 0.06 0.06 0.06 0.05 0.04 0.05 0.06 0.07 0.08 0.06 0.04 0.03 0.03
0.00 0.01 0.01 0.02 0.02 0.02 0.02 0.02 0.02 0.02 0.01 0.02 0.03 0.04 0.02 0.01 0.02 0.02 0.02 0.02 0.02 0.02 0.02 0.03 0.03 0.04 0.03 0.04 0.05 0.06 0.07 0.06 0.05 0.05 0.06 0.05 0.05 0.07 0.07 0.07 0.06 0.04 0.03 0.03
0.00 0.00 0.01 0.02 0.02 0.02 0.02 0.01 0.01 0.02 0.02 0.02 0.02 0.02 0.01 0.01 0.02 0.03 0.03 0.02 0.02 0.02 0.02 0.02 0.03 0.03 0.03 0.03 0.05 0.05 0.05 0.06 0.06 0.05 0.06 0.07 0.06 0.06 0.07 0.08 0.08 0.05 0.04 0.03
0.00 0.00 0.01 0.02 0.02 0.02 0.02 0.01 0.01 0.01 0.02 0.02 0.01 0.02 0.01 0.02 0.02 0.03 0.03 0.02 0.01 0.01 0.01 0.01 0.01 0.02 0.02 0.02 0.04 0.05 0.05 0.05 0.06 0.06 0.05 0.05 0.05 0.05 0.05 0.06 0.07 0.06 0.05 0.04
0.00 0.00 0.01 0.02 0.02 0.02 0.02 0.01 0.01 0.01 0.02 0.02 0.01 0.01 0.01 0.01 0.02 0.03 0.04 0.04 0.02 0.01 0.01 0.00 0.00 0.01 0.01 0.02 0.03 0.04 0.05 0.06 0.06 0.06 0.05 0.05 0.05 0.05 0.05 0.05 0.05 0.05 0.05 0.04
0.00 0.00 0.01 0.02 0.02 0.02 0.02 0.02 0.02 0.02 0.02 0.02 0.01 0.01 0.01 0.02 0.03 0.02 0.03 0.04 0.02 0.01 0.00 0.00 0.00 0.01 0.01 0.02 0.03 0.04 0.05 0.05 0.05 0.05 0.05 0.05 0.05 0.04 0.05 0.06 0.06 0.05 0.04 0.04
0.01 0.00 0.01 0.01 0.02 0.01 0.02 0.03 0.03 0.03 0.03 0.01 0.01 0.02 0.02 0.02 0.02 0.02 0.02 0.01 0.01 0.00 0.00 0.00 0.00 0.01 0.01 0.02 0.03 0.04 0.05 0.06 0.05 0.06 0.06 0.05 0.05 0.04 0.04 0.04 0.05 0.04 0.03 0.03
0.01 0.01 0.01 0.01 0.01 0.02 0.01 0.01 0.02 0.02 0.01 0.00 0.01 0.01 0.02 0.01 0.01 0.01 0.01 0.01 0.00 0.00 0.00 0.00 0.01 0.01 0.02 0.03 0.03 0.03 0.05 0.05 0.05 0.05 0.06 0.05 0.05 0.04 0.04 0.04 0.03 0.04 0.03 0.02
0.02 0.01 0.01 0.01 0.01 0.01 0.02 0.02 0.01 0.02 0.02 0.01 0.01 0.01 0.01 0.01 0.01 0.01 0.00 0.00 0.00 0.00 0.00 0.00 0.01 0.01 0.02 0.03 0.03 0.03 0.05 0.05 0.05 0.05 0.05 0.05 0.05 0.05 0.05 0.04 0.02 0.02 0.02 0.02
0.02 0.02 0.01 0.02 0.01 0.01 0.01 0.02 0.02 0.03 0.03 0.02 0.02 0.01 0.01 0.01 0.02 0.01 0.01 0.01 0.01 0.00 0.00 0.00 0.00 0.01 0.02 0.02 0.03 0.03 0.04 0.06 0.05 0.05 0.05 0.05 0.05 0.05 0.05 0.03 0.02 0.01 0.01 0.02
0.04 0.03 0.02 0.02 0.01 0.01 0.01 0.02 0.02 0.02 0.03 0.02 0.02 0.01 0.01 0.02 0.01 0.01 0.01 0.01 0.01 0.01 0.01 0.00 0.00 0.01 0.01 0.02 0.03 0.03 0.03 0.05 0.06 0.05 0.05 0.05 0.05 0.05 0.04 0.02 0.02 0.01 0.01 0.01
0.04 0.05 0.03 0.01 0.01 0.00 0.01 0.01 0.01 0.02 0.02 0.02 0.01 0.01 0.02 0.02 0.02 0.01 0.01 0.01 0.01 0.01 0.01 0.01 0.01 0.01 0.01 0.02 0.03 0.03 0.03 0.04 0.05 0.05 0.05 0.04 0.04 0.05 0.04 0.02 0.02 0.02 0.01 0.01
0.05 0.07 0.05 0.03 0.02 0.01 0.01 0.01 0.01 0.01 0.02 0.02 0.01 0.01 0.01 0.01 0.01 0.01 0.01 0.01 0.01 0.01 0.00 0.00 0.01 0.01 0.01 0.01 0.02 0.02 0.02 0.03 0.04 0.04 0.04 0.04 0.03 0.04 0.05 0.03 0.02 0.03 0.02 0.02
0.05 0.04 0.03 0.02 0.02 0.01 0.01 0.01 0.01 0.02 0.04 0.02 0.01 0.01 0.01 0.01 0.01 0.01 0.01 0.00 0.00 0.00 0.00 0.00 0.01 0.01 0.01 0.01 0.01 0.02 0.02 0.02 0.02 0.03 0.04 0.03 0.02 0.02 0.03 0.04 0.04 0.04 0.04 0.03
0.06 0.03 0.02 0.01 0.01 0.01 0.01 0.01 0.01 0.03 0.03 0.02 0.01 0.01 0.01 0.00 0.01 0.01 0.01 0.00 0.00 0.00 0.00 0.00 0.00 0.01 0.01 0.01 0.01 0.01 0.01 0.01 0.01 0.02 0.03 0.04 0.03 0.02 0.01 0.01 0.02 0.03 0.04 0.05
0.04 0.04 0.02 0.01 0.01 0.01 0.01 0.01 0.01 0.02 0.01 0.01 0.01 0.01 0.00 0.00 0.00 0.00 0.00 0.00 0.00 0.00 0.00 0.00 0.01 0.01 0.01 0.01 0.01 0.01 0.01 0.01 0.01 0.02 0.03 0.04 0.03 0.02 0.01 0.01 0.01 0.02 0.03 0.04
0.03 0.03 0.03 0.02 0.01 0.01 0.01 0.01 0.01 0.01 0.01 0.01 0.01 0.01 0.00 0.00 0.00 0.00 0.00 0.00 0.00 0.00 0.00 0.00 0.01 0.01 0.01 0.01 0.01 0.01 0.01 0.01 0.01 0.02 0.02 0.03 0.03 0.02 0.02 0.02 0.03 0.03 0.03 0.03
0.03 0.03 0.03 0.03 0.01 0.02 0.01 0.00 0.01 0.01 0.01 0.01 0.01 0.01 0.01 0.00 0.00 0.00 0.00 0.00 0.01 0.00 0.00 0.00 0.01 0.01 0.01 0.01 0.01 0.01 0.01 0.01 0.02 0.02 0.02 0.02 0.02 0.02 0.02 0.02 0.02 0.02 0.02 0.03
0.02 0.02 0.03 0.03 0.02 0.01 0.00 0.00 0.00 0.01 0.01 0.01 0.00 0.00 0.00 0.00 0.00 0.00 0.00 0.00 0.01 0.01 0.01 0.00 0.00 0.00 0.01 0.01 0.02 0.02 0.01 0.01 0.01 0.02 0.02 0.02 0.02 0.02 0.03 0.02 0.02 0.02 0.02 0.02
0.02 0.02 0.03 0.03 0.03 0.01 0.00 0.00 0.00 0.01 0.01 0.00 0.00 0.00 0.00 0.00 0.00 0.00 0.00 0.00 0.01 0.01 0.00 0.00 0.01 0.00 0.00 0.01 0.01 0.02 0.01 0.01 0.01 0.01 0.01 0.02 0.02 0.02 0.03 0.03 0.02 0.02 0.03 0.02
0.02 0.03 0.03 0.02 0.02 0.01 0.00 0.00 0.00 0.01 0.00 0.00 0.00 0.00 0.00 0.00 0.00 0.00 0.00 0.00 0.01 0.01 0.01 0.01 0.01 0.01 0.01 0.01 0.01 0.02 0.01 0.01 0.01 0.01 0.01 0.01 0.02 0.03 0.02 0.01 0.02 0.02 0.02 0.01
0.01 0.02 0.02 0.02 0.03 0.01 0.00 0.00 0.01 0.01 0.00 0.00 0.00 0.00 0.00 0.00 0.00 0.00 0.00 0.00 0.00 0.01 0.01 0.01 0.01 0.01 0.01 0.01 0.01 0.01 0.01 0.01 0.01 0.02 0.02 0.02 0.02 0.02 0.03 0.02 0.02 0.02 0.02 0.01
0.01 0.01 0.02 0.02 0.01 0.01 0.00 0.01 0.01 0.00 0.00 0.00 0.00 0.00 0.00 0.00 0.00 0.00 0.00 0.00 0.00 0.01 0.01 0.01 0.01 0.01 0.01 0.01 0.01 0.01 0.01 0.02 0.02 0.02 0.02 0.03 0.02 0.02 0.03 0.03 0.02 0.02 0.01 0.01
0.00 0.01 0.01 0.01 0.00 0.00 0.00 0.00 0.00 0.00 0.00 0.00 0.01 0.01 0.01 0.00 0.00 0.00 0.00 0.00 0.00 0.01 0.01 0.01 0.01 0.01 0.01 0.01 0.01 0.01 0.01 0.02 0.02 0.01 0.02 0.02 0.02 0.02 0.03 0.02 0.02 0.02 0.02 0.02
0.01 0.01 0.01 0.01 0.01 0.00 0.00 0.00 0.00 0.01 0.01 0.01 0.01 0.01 0.00 0.00 0.00 0.00 0.00 0.00 0.00 0.01 0.01 0.01 0.01 0.01 0.01 0.01 0.01 0.01 0.01 0.02 0.02 0.02 0.02 0.02 0.02 0.01 0.02 0.02 0.02 0.02 0.02 0.03
0.01 0.01 0.01 0.01 0.00 0.01 0.01 0.01 0.01 0.01 0.01 0.00 0.00 0.00 0.00 0.00 0.00 0.00 0.00 0.00 0.00 0.01 0.01 0.01 0.01 0.01 0.01 0.01 0.01 0.01 0.01 0.02 0.02 0.02 0.02 0.02 0.01 0.01 0.02 0.02 0.02 0.02 0.02 0.02
MSLP
1016.30 1015.81 1015.34 1014.90 1014.49 1014.10 1013.74 1013.38 1013.00 1012.57 1012.08 1011.50 1010.85 1010.13 1009.37 1008.61 1007.91 1007.32 1006.89 1006.65 1006.63 1006.83 1007.24 1007.84 1008.57 1009.42 1010.33 1011.27 1012.22 1013.18 1014.12 1015.04 1015.94 1016.80 1017.60 1018.33 1018.97 1019.51 1019.93 1020.24 1020.47 1020.63 1020.75 1020.86
1016.74 1016.07 1015.41 1014.79 1014.22 1013.71 1013.26 1012.86 1012.47 1012.05 1011.59 1011.05 1010.43 1009.72 1008.96 1008.20 1007.50 1006.91 1006.49 1006.29 1006.32 1006.57 1007.04 1007.68 1008.44 1009.29 1010.17 1011.08 1011.98 1012.89 1013.80 1014.72 1015.63 1016.53 1017.40 1018.21 1018.93 1019.54 1020.02 1020.39 1020.65 1020.82 1020.96 1021.07
1017.32 1016.46 1015.58 1014.73 1013.94 1013.24 1012.64 1012.14 1011.70 1011.29 1010.87 1010.39 1009.84 1009.21 1008.53 1007.83 1007.18 1006.64 1006.26 1006.10 1006.17 1006.46 1006.95 1007.61 1008.36 1009.18 1010.03 1010.88 1011.73 1012.58 1013.45 1014.34 1015.26 1016.18 1017.10 1017.97 1018.76 1019.45 1020.00 1020.43 1020.74 1020.96 1021.12 1021.25
1018.04 1016.96 1015.83 1014.71 1013.66 1012.72 1011.92 1011.27 1010.76 1010.34 1009.96 1009.58 1009.15 1008.66 1008.12 1007.55 1007.01 1006.56 1006.25 1006.14 1006.24 1006.54 1007.03 1007.66 1008.39 1009.16 1009.95 1010.74 1011.52 1012.31 1013.13 1013.98 1014.88 1015.80 1016.74 1017.65 1018.50 1019.25 1019.88 1020.37 1020.74 1021.01 1021.22 1021.38
1018.85 1017.56 1016.18 1014.78 1013.43 1012.22 1011.19 1010.38 1009.77 1009.34 1009.02 1008.76 1008.50 1008.19 1007.84 1007.45 1007.06 1006.74 1006.52 1006.45 1006.56 1006.86 1007.32 1007.91 1008.58 1009.29 1010.01 1010.73 1011.44 1012.16 1012.91 1013.71 1014.56 1015.46 1016.39 1017.31 1018.19 1018.99 1019.67 1020.22 1020.66 1020.99 1021.25 1021.46
1019.73 1018.25 1016.63 1014.96 1013.33 1011.85 1010.60 1009.62 1008.93 1008.48 1008.23 1008.11 1008.03 1007.94 1007.82 1007.64 1007.43 1007.23 1007.10 1007.08 1007.20 1007.46 1007.87 1008.40 1008.99 1009.63 1010.27 1010.91 1011.55 1012.19 1012.87 1013.59 1014.38 1015.22 1016.11 1017.01 1017.88 1018.69 1019.41 1020.02 1020.51 1020.90 1021.22 1021.48
1020.65 1019.02 1017.21 1015.31 1013.45 1011.74 1010.29 1009.17 1008.40 1007.97 1007.80 1007.81 1007.93 1008.06 1008.16 1008.19 1008.16 1008.09 1008.05 1008.05 1008.16 1008.38 1008.72 1009.17 1009.68 1010.23 1010.80 1011.36 1011.91 1012.47 1013.06 1013.69 1014.38 1015.14 1015.95 1016.79 1017.62 1018.42 1019.14 1019.78 1020.31 1020.75 1021.12 1021.43
1021.55 1019.83 1017.90 1015.85 1013.84 1011.98 1010.40 1009.19 1008.39 1007.98 1007.89 1008.04 1008.33 1008.66 1008.96 1009.17 1009.29 1009.34 1009.34 1009.37 1009.44 1009.61 1009.87 1010.23 1010.66 1011.12 1011.61 1012.09 1012.56 1013.02 1013.51 1014.03 1014.60 1015.24 1015.94 1016.68 1017.44 1018.18 1018.89 1019.52 1020.08 1020.56 1020.96 1021.31
1022.38 1020.66 1018.70 1016.62 1014.55 1012.65 1011.03 1009.80 1009.00 1008.63 1008.62 1008.88 1009.31 1009.79 1010.24 1010.59 1010.81 1010.92 1010.96 1010.97 1011.01 1011.10 1011.29 1011.56 1011.90 1012.28 1012.69 1013.08 1013.47 1013.84 1014.21 1014.60 1015.04 1015.53 1016.09 1016.70 1017.35 1018.02 1018.67 1019.27 1019.82 1020.31 1020.74 1021.12
1023.11 1021.47 1019.60 1017.60 1015.60 1013.76 1012.19 1011.01 1010.26 1009.94 1010.00 1010.34 1010.85 1011.42 1011.95 1012.37 1012.64 1012.78 1012.81 1012.79 1012.77 1012.79 1012.89 1013.08 1013.34 1013.65 1013.97 1014.29 1014.59 1014.86 1015.11 1015.37 1015.66 1015.99 1016.39 1016.85 1017.37 1017.93 1018.49 1019.05 1019.57 1020.04 1020.48 1020.87
1023.72 1022.25 1020.57 1018.76 1016.95 1015.27 1013.84 1012.77 1012.11 1011.85 1011.95 1012.32 1012.85 1013.44 1013.98 1014.40 1014.66 1014.77 1014.77 1014.69 1014.61 1014.56 1014.59 1014.70 1014.89 1015.13 1015.38 1015.63 1015.84 1016.01 1016.15 1016.27 1016.40 1016.58 1016.81 1017.12 1017.49 1017.92 1018.38 1018.86 1019.33 1019.77 1020.18 1020.56
1024.21 1022.99 1021.58 1020.05 1018.50 1017.06 1015.84 1014.92 1014.36 1014.15 1014.26 1014.61 1015.11 1015.65 1016.13 1016.49 1016.70 1016.75 1016.69 1016.55 1016.41 1016.29 1016.26 1016.30 1016.43 1016.61 1016.80 1016.97 1017.10 1017.18 1017.21 1017.20 1017.20 1017.22 1017.30 1017.46 1017.69 1017.99 1018.35 1018.73 1019.13 1019.51 1019.88 1020.23
1024.66 1023.72 1022.62 1021.41 1020.17 1019.01 1018.01 1017.25 1016.78 1016.60 1016.69 1016.99 1017.39 1017.83 1018.21 1018.47 1018.59 1018.57 1018.43 1018.24 1018.04 1017.87 1017.78 1017.78 1017.85 1017.97 1018.10 1018.21 1018.27 1018.27 1018.20 1018.09 1017.97 1017.87 1017.82 1017.84 1017.95 1018.13 1018.39 1018.68 1019.00 1019.32 1019.62 1019.92
1025.14 1024.49 1023.69 1022.80 1021.86 1020.95 1020.16 1019.54 1019.14 1018.97 1019.00 1019.20 1019.48 1019.78 1020.03 1020.18 1020.20 1020.10 1019.90 1019.66 1019.41 1019.21 1019.08 1019.03 1019.06 1019.13 1019.21 1019.26 1019.26 1019.18 1019.05 1018.86 1018.65 1018.46 1018.31 1018.24 1018.25 1018.34 1018.51 1018.72 1018.95 1019.20 1019.44 1019.67
1025.75 1025.33 1024.80 1024.16 1023.47 1022.77 1022.13 1021.60 1021.23 1021.02 1020.97 1021.05 1021.20 1021.36 1021.48 1021.51 1021.44 1021.28 1021.04 1020.76 1020.49 1020.26 1020.10 1020.02 1020.00 1020.02 1020.05 1020.05 1020.00 1019.88 1019.69 1019.45 1019.19 1018.95 1018.75 1018.62 1018.57 1018.59 1018.69 1018.83 1019.00 1019.17 1019.34 1019.50
1026.55 1026.30 1025.94 1025.47 1024.93 1024.35 1023.79 1023.29 1022.89 1022.62 1022.47 1022.42 1022.43 1022.47 1022.48 1022.42 1022.29 1022.09 1021.83 1021.54 1021.26 1021.02 1020.84 1020.72 1020.66 1020.64 1020.61 1020.57 1020.47 1020.31 1020.10 1019.84 1019.57 1019.31 1019.09 1018.93 1018.85 1018.85 1018.90 1018.99 1019.10 1019.21 1019.31 1019.40
1027.54 1027.36 1027.07 1026.67 1026.17 1025.62 1025.06 1024.53 1024.07 1023.70 1023.45 1023.28 1023.18 1023.12 1023.05 1022.95 1022.79 1022.58 1022.33 1022.05 1021.78 1021.53 1021.33 1021.18 1021.07 1020.99 1020.92 1020.82 1020.69 1020.51 1020.28 1020.02 1019.76 1019.51 1019.30 1019.16 1019.07 1019.05 1019.09 1019.14 1019.21 1019.27 1019.32 1019.34
1028.67 1028.46 1028.13 1027.69 1027.15 1026.54 1025.90 1025.29 1024.73 1024.27 1023.91 1023.66 1023.48 1023.36 1023.26 1023.15 1023.01 1022.82 1022.60 1022.35 1022.09 1021.84 1021.61 1021.42 1021.27 1021.13 1021.00 1020.85 1020.68 1020.48 1020.25 1020.01 1019.76 1019.54 1019.37 1019.24 1019.17 1019.16 1019.18 1019.22 1019.26 1019.28 1019.28 1019.26
1029.76 1029.46 1029.02 1028.45 1027.79 1027.06 1026.32 1025.60 1024.95 1024.40 1023.97 1023.66 1023.45 1023.31 1023.22 1023.13 1023.03 1022.89 1022.71 1022.49 1022.25 1022.00 1021.75 1021.51 1021.30 1021.10 1020.90 1020.71 1020.50 1020.28 1020.05 1019.82 1019.60 1019.41 1019.26 1019.16 1019.10 1019.09 1019.11 1019.13 1019.16 1019.16 1019.13 1019.08
1030.64 1030.19 1029.60 1028.88 1028.07 1027.21 1026.35 1025.53 1024.81 1024.20 1023.74 1023.41 1023.20 1023.08 1023.02 1022.99 1022.94 1022.85 1022.72 1022.53 1022.30 1022.04 1021.76 1021.48 1021.20 1020.94 1020.69 1020.44 1020.20 1019.95 1019.72 1019.49 1019.29 1019.11 1018.98 1018.89 1018.84 1018.82 1018.83 1018.85 1018.85 1018.84 1018.79 1018.73
1031.11 1030.51 1029.76 1028.90 1027.96 1027.00 1026.05 1025.17 1024.41 1023.79 1023.32 1023.01 1022.83 1022.76 1022.75 1022.77 1022.78 1022.74 1022.64 1022.48 1022.25 1021.97 1021.66 1021.33 1021.00 1020.68 1020.37 1020.07 1019.79 1019.52 1019.28 1019.05 1018.84 1018.67 1018.53 1018.44 1018.37 1018.34 1018.33 1018.33 1018.31 1018.29 1018.24 1018.17
1031.03 1030.31 1029.45 1028.48 1027.47 1026.45 1025.47 1024.59 1023.84 1023.25 1022.82 1022.55 1022.42 1022.40 1022.44 1022.50 1022.55 1022.54 1022.46 1022.30 1022.07 1021.77 1021.42 1021.05 1020.67 1020.30 1019.94 1019.61 1019.30 1019.01 1018.75 1018.51 1018.29 1018.10 1017.95 1017.82 1017.73 1017.67 1017.62 1017.59 1017.56 1017.52 1017.47 1017.41
1030.36 1029.57 1028.65 1027.66 1026.64 1025.64 1024.70 1023.87 1023.18 1022.66 1022.29 1022.08 1022.00 1022.02 1022.09 1022.17 1022.23 1022.22 1022.14 1021.97 1021.71 1021.39 1021.01 1020.61 1020.19 1019.79 1019.40 1019.05 1018.72 1018.41 1018.14 1017.88 1017.65 1017.44 1017.25 1017.09 1016.95 1016.85 1016.76 1016.69 1016.63 1016.58 1016.54 1016.49
1029.17 1028.37 1027.47 1026.52 1025.57 1024.66 1023.82 1023.10 1022.51 1022.07 1021.78 1021.62 1021.58 1021.61 1021.68 1021.75 1021.78 1021.75 1021.63 1021.44 1021.15 1020.80 1020.40 1019.98 1019.55 1019.13 1018.73 1018.37 1018.04 1017.73 1017.45 1017.19 1016.94 1016.70 1016.48 1016.28 1016.10 1015.94 1015.81 1015.70 1015.61 1015.55 1015.50 1015.46
1027.63 1026.87 1026.05 1025.21 1024.39 1023.62 1022.93 1022.34 1021.88 1021.53 1021.31 1021.18 1021.14 1021.15 1021.18 1021.20 1021.18 1021.09 1020.93 1020.69 1020.37 1020.00 1019.58 1019.15 1018.72 1018.31 1017.92 1017.57 1017.25 1016.96 1016.68 1016.42 1016.17 1015.92 1015.68 1015.44 1015.22 1015.01 1014.84 1014.69 1014.58 1014.49 1014.44 1014.40
1025.98 1025.29 1024.59 1023.89 1023.24 1022.64 1022.11 1021.67 1021.33 1021.06 1020.88 1020.76 1020.69 1020.64 1020.60 1020.53 1020.43 1020.26 1020.03 1019.74 1019.39 1018.99 1018.57 1018.14 1017.73 1017.33 1016.97 1016.65 1016.36 1016.09 1015.84 1015.60 1015.35 1015.11 1014.85 1014.60 1014.36 1014.12 1013.92 1013.74 1013.60 1013.49 1013.42 1013.37
Thickness
5526 5520 5518 5520 5521 5523 5520 5519 5520 5525 5530 5528 5530 5535 5544 5546 5546 5549 5552 5556 5562 5568 5574 5577 5581 5584 5586 5588 5590 5593 5594 5595 5596 5596 5595 5595 5594 5595 5595 5596 5596 5596 5596 5595
5511 5512 5517 5518 5517 5516 5514 5512 5511 5516 5521 5521 5519 5525 5535 5537 5539 5542 5545 5548 5552 5556 5562 5566 5570 5572 5575 5578 5580 5582 5585 5585 5587 5588 5588 5588 5587 5586 5587 5587 5587 5588 5588 5587
5507 5509 5513 5512 5510 5508 5509 5505 5505 5505 5508 5509 5509 5519 5527 5532 5533 5535 5538 5541 5543 5547 5551 5556 5559 5561 5564 5567 5570 5573 5574 5576 5577 5578 5577 5577 5576 5575 5575 5576 5578 5579 5579 5579
5495 5500 5503 5503 5502 5502 5502 5503 5500 5499 5493 5490 5495 5496 5519 5523 5525 5529 5530 5531 5534 5537 5541 5545 5549 5551 5553 5557 5559 5562 5563 5565 5567 5567 5568 5568 5569 5568 5567 5568 5569 5569 5570 5570
5487 5491 5492 5493 5495 5494 5490 5493 5490 5488 5481 5477 5482 5480 5504 5512 5516 5522 5524 5524 5526 5529 5532 5535 5538 5540 5543 5546 5548 5551 5553 5554 5555 5556 5558 5558 5559 5559 5557 5557 5558 5559 5559 5560
5479 5483 5484 5486 5487 5485 5482 5478 5474 5467 5466 5470 5476 5473 5490 5496 5511 5518 5518 5517 5518 5519 5522 5525 5528 5530 5531 5534 5537 5540 5542 5543 5545 5546 5547 5548 5548 5548 5547 5547 5548 5548 5549 5550
5470 5474 5476 5478 5476 5474 5471 5463 5452 5451 5446 5460 5468 5469 5485 5500 5505 5507 5509 5509 5509 5510 5512 5514 5516 5518 5520 5523 5526 5530 5532 5533 5534 5535 5536 5538 5538 5538 5539 5539 5539 5539 5539 5539
5454 5460 5466 5467 5468 5463 5461 5459 5447 5445 5441 5449 5455 5460 5485 5495 5496 5497 5499 5499 5499 5500 5502 5504 5506 5508 5510 5513 5516 5519 5522 5523 5525 5526 5526 5527 5528 5528 5529 5530 5530 5530 5530 5530
5445 5451 5459 5460 5460 5460 5453 5450 5448 5435 5428 5433 5445 5454 5476 5489 5489 5488 5489 5489 5489 5490 5492 5494 5496 5498 5500 5503 5506 5509 5512 5514 5515 5516 5516 5517 5517 5518 5519 5519 5521 5521 5521 5520
5443 5439 5446 5450 5452 5450 5448 5441 5429 5428 5432 5437 5446 5450 5466 5477 5480 5480 5478 5478 5480 5482 5483 5485 5486 5489 5491 5493 5496 5499 5502 5504 5505 5506 5507 5508 5508 5509 5509 5510 5510 5511 5511 5511
5436 5427 5431 5436 5438 5439 5435 5434 5429 5422 5424 5428 5431 5455 5470 5469 5472 5469 5469 5469 5470 5472 5474 5475 5476 5478 5480 5483 5485 5488 5491 5493 5495 5496 5496 5497 5498 5499 5499 5499 5500 5501 5502 5503
5427 5415 5416 5424 5431 5433 5433 5431 5423 5422 5417 5413 5421 5448 5468 5463 5462 5461 5461 5461 5462 5462 5464 5466 5467 5469 5471 5473 5476 5478 5481 5483 5485 5486 5488 5488 5489 5489 5489 5490 5492 5492 5493 5494
5418 5408 5407 5417 5420 5419 5420 5422 5419 5413 5409 5402 5412 5441 5459 5453 5454 5454 5453 5453 5453 5454 5455 5456 5458 5459 5462 5464 5466 5468 5471 5473 5475 5477 5479 5479 5480 5480 5481 5482 5483 5483 5485 5486
5414 5399 5403 5412 5418 5412 5410 5413 5411 5407 5405 5405 5416 5434 5448 5448 5446 5447 5446 5446 5445 5446 5448 5448 5449 5450 5452 5455 5457 5459 5461 5464 5466 5468 5470 5470 5471 5472 5473 5474 5474 5475 5476 5477
5405 5393 5389 5395 5404 5404 5406 5409 5407 5404 5408 5410 5421 5424 5439 5440 5438 5439 5438 5438 5439 5440 5441 5442 5442 5442 5443 5446 5448 5450 5452 5455 5457 5459 5461 5462 5463 5464 5464 5465 5465 5466 5467 5468
5390 5384 5381 5387 5395 5393 5397 5404 5404 5407 5408 5407 5412 5421 5431 5429 5429 5429 5429 5431 5433 5434 5435 5436 5435 5435 5436 5438 5440 5442 5444 5446 5448 5449 5451 5453 5454 5454 5455 5455 5456 5457 5457 5457
5377 5374 5374 5378 5379 5386 5391 5401 5404 5404 5404 5404 5410 5422 5422 5421 5424 5424 5424 5425 5426 5427 5428 5428 5429 5429 5430 5430 5432 5433 5436 5437 5438 5440 5441 5443 5444 5445 5445 5446 5446 5447 5448 5448
5370 5365 5359 5361 5366 5373 5403 5403 5403 5401 5403 5401 5405 5410 5412 5415 5416 5417 5417 5416 5417 5419 5421 5421 5422 5422 5423 5423 5424 5426 5427 5428 5429 5430 5431 5433 5435 5435 5436 5436 5437 5439 5440 5440
5367 5361 5352 5351 5356 5371 5393 5397 5393 5392 5399 5402 5401 5404 5405 5405 5407 5409 5412 5410 5411 5412 5413 5414 5415 5415 5416 5416 5416 5417 5418 5419 5420 5421 5422 5424 5425 5426 5427 5428 5429 5430 5431 5432
5356 5354 5348 5343 5351 5362 5393 5394 5390 5388 5390 5399 5396 5397 5395 5396 5397 5405 5406 5404 5404 5405 5406 5407 5408 5408 5408 5408 5408 5409 5410 5411 5412 5413 5415 5416 5417 5418 5419 5421 5421 5422 5422 5423
5348 5343 5342 5340 5342 5360 5380 5381 5383 5379 5388 5394 5390 5389 5388 5388 5391 5395 5395 5395 5396 5397 5398 5399 5400 5400 5400 5401 5401 5401 5402 5403 5405 5406 5407 5408 5409 5410 5411 5412 5412 5412 5413 5413
5347 5341 5335 5331 5338 5361 5377 5372 5373 5379 5382 5381 5381 5382 5381 5381 5383 5384 5385 5386 5388 5388 5390 5391 5391 5391 5391 5392 5393 5394 5395 5397 5397 5398 5400 5401 5402 5403 5404 5403 5403 5403 5403 5403
5341 5348 5346 5348 5362 5370 5369 5369 5372 5371 5371 5373 5373 5375 5374 5373 5375 5376 5376 5377 5378 5380 5381 5381 5382 5382 5382 5383 5385 5386 5388 5389 5390 5391 5392 5393 5394 5395 5395 5395 5394 5394 5394 5394
5338 5341 5341 5342 5356 5360 5361 5361 5363 5363 5364 5366 5366 5367 5366 5366 5367 5367 5368 5368 5369 5371 5372 5372 5373 5373 5374 5375 5377 5378 5380 5381 5382 5382 5383 5385 5386 5387 5387 5387 5387 5387 5386 5386
5341 5333 5333 5338 5349 5351 5357 5357 5359 5358 5358 5358 5359 5360 5359 5359 5359 5359 5359 5360 5361 5363 5364 5364 5365 5366 5366 5368 5370 5372 5373 5374 5374 5375 5376 5377 5378 5379 5379 5379 5379 5380 5381 5382
5334 5334 5335 5347 5351 5349 5355 5356 5354 5352 5352 5352 5351 5352 5352 5352 5352 5352 5352 5352 5353 5355 5356 5356 5357 5358 5359 5360 5363 5365 5366 5367 5367 5368 5369 5370 5370 5371 5371 5371 5372 5374 5375 5375